Starlink 32176

operational
NORAD ID: 60340 Int'l Des: 2024-136 Owner: SPXS Country: US Constellation: starlink
LEOCIRCULAR

关于 Starlink 32176

正在加载描述...

实时位置

正在加载3D地球...

即将过境

高度历史

Altitude vs Time

uPlot chart will show altitude changes over time

两行轨道根数

1 60340U 24136M 25261.12171168 .00001248 00000-0 54267-4 0 9995
2 60340 53.1594 157.2225 0001144 94.8830 265.2301 15.30187262 64417
Epoch: Sep 18, 2025 • Age: 19 hours

当前状态

高度 475.4 km
速度 7.63 km/s
星下点 7.79°N, 165.25°W
发射日期 Aug 2, 2024
运行时间 1.1 years
类型 internet

技术详情

分类 Payload
质量 730.00 kg
干质量 700.00 kg
总质量 730.00 kg
长度 0.30 m
直径 4.10 m
跨度 29.00 m
形状 Box + pan
制造商 SPXS
平台类型 Starlink V2M
阶段状态 In Orbit
所有者/国家 SPXS/US

大型星座

Loading constellations...